Miscellaneous Local Product
Issued by NWS Hastings, NE

Home | Current Version | Previous Version | Text Only | Print | Product List | Glossary Off
Versions: 1 2 3 4 5 6 7 8 9 10 11 12 13 14 15 16 17 18 19 20 21 22 23 24 25 26 27 28 29 30 31 32 33 34 35 36 37 38 39 40 41 42 43 44 45 46 47 48 49 50

000
AXUS43 KGID 051702
MISGRI

GID CWA HOURLY WEATHER ROUNDUP
NATIONAL WEATHER SERVICE HASTINGS NE
1200 PM CDT TUE MAY 05 2015

NOTE: "FAIR" INDICATES FEW OR NO CLOUDS BELOW 12,000 FEET WITH NO
SIGNIFICANT WEATHER AND/OR OBSTRUCTIONS TO VISIBILITY.

...SOUTH CENTRAL NEBRASKA...

CITY           SKY/WX    TMP DP  RH WIND       PRES   REMARKS
GRAND ISLAND   CLOUDY    64  59  83 E12       30.05F
HASTINGS       CLOUDY    67  60  78 SE12      30.03F
KEARNEY        CLOUDY    64  59  82 E13       30.03S
ORD            CLOUDY    60  57  89 SE7       30.03S
YORK           CLOUDY    64  63  94 SE10      30.07S
AURORA         CLOUDY    65  63  91 SE15      30.05F
LEXINGTON      CLOUDY    60  59  96 E9        30.01F FOG
HOLDREGE       CLOUDY    63  59  88 E10       30.01F
HEBRON         PTSUNNY   71  57  60 S12G17    30.05S

...NEBRASKA PANHANDLE...

CITY           SKY/WX    TMP DP  RH WIND       PRES   REMARKS
CHADRON        CLOUDY    57  48  72 SE12      29.98S
ALLIANCE       CLOUDY    58  49  72 S12       29.98F
SCOTTSBLUFF    CLOUDY    59  48  67 SE6       29.97F
SIDNEY         CLOUDY    51  47  86 E12       30.00F

...WESTERN AND NORTH CENTRAL NEBRASKA...

CITY           SKY/WX    TMP DP  RH WIND       PRES   REMARKS
VALENTINE      LGT RAIN  54  52  93 SE9       30.04R
AINSWORTH      RAIN      55  55  99 SE7       30.04F
ONEILL         FOG       56  56  99 SE9       30.06F VSB 3/4
BROKEN BOW     CLOUDY    60  57  89 SE10      30.03S
IMPERIAL       CLOUDY    54  53  97 E8        30.00S
NORTH PLATTE   CLOUDY    57  55  93 E8        30.01F
MCCOOK         FOG       59  58  96 E8        29.99S VSB 1

...EASTERN NEBRASKA...

CITY           SKY/WX    TMP DP  RH WIND       PRES   REMARKS
NORFOLK        CLOUDY    65  60  84 S10       30.06S
SO SIOUX CITY  CLOUDY    61  57  87 SE7       30.09S
TEKAMAH        PTSUNNY   69  63  81 S15       30.08S
COLUMBUS       PTSUNNY   66  57  72 SE9       30.09S
ALBION         CLOUDY    62  60  94 SE8       30.06S FOG
OMAHA EPPLEY   CLOUDY    71  60  68 S13       30.08F
MILLARD        PTSUNNY   70  61  73 SE12      30.08F
LINCOLN        PTSUNNY   69  61  75 SE10      30.07F
NEBRASKA CITY  CLOUDY    67  62  82 S12       30.10S
BEATRICE       CLOUDY    67  59  73 S10       30.07S
FALLS CITY     PTSUNNY   73  63  70 SE10      30.09S

...NORTHERN KANSAS...

CITY           SKY/WX    TMP DP  RH WIND       PRES   REMARKS
GOODLAND       LGT RAIN  58  57  97 SE10      29.97S
HILL CITY      CLOUDY    65  57  75 S16G28    29.99R
NORTON         CLOUDY    68  55  64 SE12G17   29.98S
PHILLIPSBURG   CLOUDY    72  59  64 SE14G20   30.00S
SMITH CENTER   PTSUNNY   72  55  56 SE15G23   30.01F
HAYS           CLOUDY    66  54  63 S24       29.99S
RUSSELL        PTSUNNY   72  58  61 S20G31    29.99S
CONCORDIA      CLOUDY    72  57  59 S14G24    30.04S
SALINA         PTSUNNY   74  60  61 S17G24    30.03F
TOPEKA         PTSUNNY   76  59  55 S10       30.09F



USA.gov is the U.S. government's official web portal to all federal, state and local government web resources and services.